Location: Hylvaty SDH
(49.9612°N, 16.4057°E)
Time: 19:46:13
(UTC+02:00)

Transit 4A - Pass Details

Date: 15 August 2020
Orbit: 862 x 982 km, 66.8° (Epoch: 28 September)

Event Time Altitude Azimuth Distance (km) Brightness Sun altitude
Rises 18:57:58 0° 316° (NW) 3,665 11.9 10.6°
Reaches altitude 10° 19:01:01 10° 303° (WNW) 2,726 11.8 10.1°
Maximum altitude 19:05:53 24° 253° (WSW) 1,928 10.8 9.3°
Drops below altitude 10° 19:10:46 10° 203° (SSW) 2,728 10.5 8.6°
Sets 19:13:50 0° 190° (S) 3,669 11.0 8.1°
